Wind_Speed
41 41 42 40 40 38 37 37 37 37 38 38 39 41 44 41 44 36 29 25 9 4 6 2 11 15 14 10 8 4 4 3 3 4 4 4 4 5 4 6 7 6 6 3 3 3 6 6 3 7 6 4 8 5
34 36 35 34 33 33 33 34 34 35 35 39 41 42 41 37 39 40 8 28 24 3 4 18 22 20 23 10 6 1 7 5 4 4 1 4 2 2 5 3 3 1 6 6 8 6 6 4 5 5 7 6 4 7
30 29 29 29 29 29 30 27 28 32 34 39 38 38 37 38 40 38 13 12 8 4 7 3 6 5 19 34 27 5 2 3 5 4 5 3 5 4 3 4 4 2 5 4 4 3 2 4 5 6 5 10 7 6
25 27 27 27 27 27 25 20 21 24 32 38 39 38 39 37 37 31 13 20 8 4 2 4 12 6 2 29 25 13 10 7 7 3 3 3 4 4 4 4 5 5 6 6 3 1 10 8 6 10 12 12 14 13
24 25 25 26 26 25 25 23 23 26 32 32 34 35 35 34 30 26 17 18 16 4 2 4 12 8 8 25 20 24 12 8 3 3 3 2 2 4 1 3 1 5 7 5 5 8 5 3 4 7 13 11 10 15
26 26 25 24 24 25 24 22 24 25 28 30 32 32 30 27 26 19 3 21 29 8 3 1 6 6 7 13 14 14 5 5 3 4 2 1 0 3 4 3 2 1 2 6 6 6 13 12 10 9 14 12 12 14
25 25 24 22 20 19 19 19 21 25 27 27 28 25 27 25 32 8 5 2 26 20 3 2 4 5 6 5 3 4 4 4 2 2 2 3 1 3 3 3 6 4 8 13 17 17 10 0 8 11 16 18 22 20
27 25 25 24 24 23 23 21 22 23 23 25 25 23 24 28 13 14 11 4 17 5 3 3 2 4 6 2 3 2 2 2 4 2 1 2 2 2 1 2 9 8 12 10 7 10 13 16 15 12 17 17 14 11
33 28 26 27 26 23 22 19 21 24 28 25 24 26 21 10 4 8 18 7 28 9 4 3 4 3 1 1 1 3 3 3 2 2 1 3 1 2 2 10 12 12 7 14 15 17 15 16 14 12 11 9 12 10
36 28 29 29 26 24 21 16 23 31 36 35 27 6 2 1 9 13 8 2 2 1 3 3 1 2 2 1 3 3 3 2 2 3 1 4 0 3 5 5 5 11 18 18 19 11 14 14 13 10 11 8 9 10
27 30 32 29 27 25 25 29 31 28 34 11 4 2 9 20 6 2 3 2 1 4 4 2 2 4 5 4 3 2 2 1 3 3 4 2 2 2 4 8 7 11 10 7 12 12 13 15 14 12 10 13 14 14
30 29 29 29 29 29 31 31 32 22 9 8 13 12 6 2 1 3 3 3 4 1 2 2 1 2 2 3 4 0 3 2 3 2 4 2 2 5 9 10 11 12 15 16 20 16 18 18 18 17 15 15 15 16
34 34 31 33 33 34 36 42 43 15 33 16 4 4 3 4 7 4 2 2 1 1 1 2 3 2 3 3 2 3 4 1 1 2 2 1 5 6 11 11 13 16 21 20 17 21 21 19 18 21 18 17 18 17
41 38 34 32 34 36 40 34 7 5 5 4 3 4 4 4 4 3 2 2 1 2 2 2 3 3 0 4 1 4 0 2 2 2 4 3 7 8 9 12 14 12 13 14 14 18 18 19 18 19 19 22 21 18
36 36 32 28 24 19 11 9 9 12 10 6 6 5 5 1 1 1 1 2 2 1 1 1 2 2 3 3 2 3 1 2 1 2 1 3 4 9 12 11 12 12 11 11 16 16 17 17 17 17 19 20 21 19
28 34 25 16 14 19 19 18 20 7 4 4 6 3 3 3 5 3 3 2 2 1 0 0 3 4 3 2 2 2 2 1 1 0 0 4 8 9 11 11 10 14 14 15 15 17 17 15 16 18 19 17 16 16
31 9 18 17 26 15 14 11 8 6 4 4 3 1 0 1 1 0 2 2 2 1 2 2 5 3 1 3 3 4 2 2 1 2 3 7 8 10 11 12 14 14 15 16 17 15 16 19 22 19 14 14 14 16
19 18 10 13 19 24 14 13 5 5 7 4 3 5 3 3 3 4 4 3 3 2 2 3 3 5 5 4 3 3 3 2 3 4 5 8 8 12 13 11 14 17 16 16 16 16 19 16 13 10 15 16 15 14
23 18 15 16 11 8 4 6 6 4 5 2 3 3 2 3 7 6 7 7 8 7 3 3 5 4 3 3 3 4 3 3 2 3 4 9 13 13 14 16 17 17 17 16 17 16 17 17 14 13 13 11 11 8
24 26 25 17 9 6 5 3 5 4 3 2 2 6 4 3 4 6 10 8 6 4 6 5 4 3 3 4 4 4 4 4 2 5 5 6 12 16 14 16 15 20 20 20 19 19 17 16 13 11 10 8 8 5
13 18 15 14 9 14 4 3 4 3 2 3 2 2 3 4 9 7 6 7 7 4 4 4 3 5 10 11 14 11 13 11 4 3 3 6 14 17 17 18 19 19 17 15 14 14 15 11 8 7 7 7 8 7
10 11 7 13 7 6 5 11 3 0 3 1 3 3 3 3 3 4 2 7 4 4 3 3 5 6 8 12 15 20 17 19 19 20 19 17 7 10 13 14 17 15 16 14 13 12 11 10 7 6 6 6 5 4
7 9 9 11 7 7 3 6 5 5 4 3 3 4 3 3 2 2 3 4 4 8 8 10 12 15 14 16 20 24 22 19 17 16 17 18 18 18 19 18 16 14 13 13 12 12 10 7 7 5 6 6 5 4
11 7 6 5 6 3 3 5 3 3 4 4 3 3 3 2 2 4 4 3 4 12 11 9 9 5 12 16 12 16 17 16 17 18 16 15 15 15 17 17 20 18 14 12 12 10 9 8 6 6 7 6 7 7
7 8 6 7 4 6 5 4 4 4 3 4 4 3 2 2 3 3 3 2 4 5 6 10 13 11 5 5 10 14 17 15 13 12 16 13 14 14 15 17 17 15 11 10 11 8 8 7 7 7 8 10 11 8
8 6 5 6 3 4 3 3 3 2 2 3 2 2 2 3 4 4 2 1 2 3 5 6 4 5 7 12 8 10 12 10 14 16 16 16 12 10 8 6 6 9 10 11 11 9 7 8 9 9 11 9 8 11
6 5 3 0 2 2 3 2 2 5 4 3 2 3 3 4 4 3 1 5 2 7 12 14 13 11 9 10 13 13 15 14 16 16 16 19 19 18 14 11 8 6 6 8 9 8 9 10 10 13 12 10 11 11
3 4 4 5 4 3 4 3 3 3 3 4 3 6 3 3 3 2 4 4 13 15 16 16 16 16 17 15 13 12 8 11 13 14 15 15 16 16 12 8 7 8 9 9 9 9 9 10 12 9 10 13 15 14
3 2 3 6 5 5 4 3 3 2 4 2 3 3 3 3 7 8 11 15 14 17 16 13 13 15 17 18 20 21 20 12 7 5 4 3 8 13 15 8 9 10 10 10 11 10 9 12 13 12 12 12 13 10
3 2 4 4 4 4 3 3 2 3 7 5 5 5 5 4 12 18 18 17 18 17 17 17 15 16 15 12 13 16 17 17 18 16 3 2 7 12 14 16 17 15 14 13 12 10 10 13 13 12 12 13 11 10
3 4 4 4 3 1 1 4 11 9 5 4 7 3 4 4 7 20 20 17 16 16 17 17 16 14 14 15 13 9 12 11 10 13 12 11 11 12 16 16 14 13 14 15 16 16 17 17 15 14 15 15 8 9
3 2 3 3 1 2 3 2 1 3 2 3 1 2 2 3 3 4 12 10 14 14 12 11 12 9 8 9 7 6 3 6 12 14 14 13 14 13 13 14 17 16 13 13 14 13 13 14 14 15 15 9 9 11
3 4 4 3 3 4 3 3 2 3 3 2 2 2 2 3 2 3 7 9 11 13 12 9 6 5 2 3 5 6 11 14 13 10 9 10 11 15 15 13 12 13 14 13 14 13 13 14 17 18 16 13 12 10
Wind_Direction
128 132 140 145 151 160 164 167 170 177 184 187 188 192 201 202 203 202 212 212 177 271 277 287 193 193 189 188 171 187 103 315 77 89 128 190 128 208 102 169 172 155 140 179 102 72 277 194 111 157 197 151 142 131
131 140 143 147 153 159 165 171 177 179 185 187 187 189 199 196 199 190 211 222 241 274 290 317 284 266 214 158 134 117 173 150 159 96 20 106 112 89 134 205 137 149 176 177 175 211 231 235 170 129 147 139 133 122
138 143 147 153 160 162 162 172 187 195 195 193 190 194 192 191 190 180 184 176 213 329 283 223 248 323 206 198 188 135 293 179 77 205 172 160 111 123 143 234 119 269 151 130 97 337 76 70 65 82 109 114 96 89
144 149 153 157 157 159 164 166 168 171 164 174 184 182 183 180 193 180 167 199 171 264 231 280 344 303 321 171 166 169 162 132 116 77 96 131 129 182 206 167 142 194 138 153 91 54 78 38 62 111 100 91 86 71
150 153 158 160 161 163 163 162 161 160 160 166 169 170 173 183 180 179 194 203 227 302 333 282 320 313 105 126 121 118 121 119 124 106 93 171 135 111 309 83 215 182 167 152 210 184 126 127 96 110 104 99 98 102
156 158 160 161 161 159 157 159 159 170 173 173 171 177 179 170 166 150 197 245 231 255 303 51 306 318 19 147 124 110 141 78 52 114 170 121 249 106 116 175 263 199 162 160 155 109 106 101 86 94 98 99 93 94
160 160 159 159 157 158 164 164 162 162 160 165 167 171 174 170 162 178 185 114 194 185 255 96 293 324 336 351 44 43 0 79 112 120 71 130 84 81 97 161 172 122 96 108 118 115 102 151 122 104 101 101 99 95
168 162 162 161 160 155 150 146 150 156 162 163 164 170 170 172 183 214 220 293 166 160 262 123 275 354 328 357 77 299 103 60 23 171 7 112 29 50 131 164 128 115 92 83 71 75 106 116 109 107 110 112 102 95
178 167 165 165 163 158 155 155 168 170 166 159 163 157 158 200 174 198 194 202 181 209 177 132 145 202 316 27 109 39 45 69 345 92 221 86 323 188 251 158 149 149 127 125 102 103 109 110 116 115 111 102 103 101
184 175 177 179 177 172 173 167 169 153 158 161 150 194 130 113 128 174 275 275 135 285 27 94 335 195 95 18 46 69 29 105 83 262 53 66 308 322 23 63 111 121 124 125 110 112 119 121 124 118 113 107 104 102
163 176 185 183 180 176 172 167 165 154 151 175 162 107 105 133 150 181 212 115 40 41 360 350 40 79 0 85 98 52 109 36 89 252 126 143 174 194 44 65 77 122 125 90 109 119 124 127 126 116 100 94 95 99
125 135 145 153 160 166 170 170 163 156 199 122 105 94 126 127 121 101 25 1 42 96 356 103 337 85 40 72 84 351 102 62 150 152 88 146 227 133 109 96 86 93 99 99 108 111 113 112 114 107 111 111 108 111
116 124 132 143 150 154 155 159 163 124 111 110 39 71 33 347 57 70 100 44 119 268 286 42 43 72 50 49 85 95 76 131 28 83 169 183 144 131 128 116 105 104 103 102 98 97 99 100 108 118 117 119 117 113
101 107 120 137 149 155 159 164 202 174 128 77 97 79 49 42 51 32 33 73 322 333 10 45 66 88 45 52 37 99 208 95 100 146 205 167 153 129 130 124 118 113 104 105 104 107 110 113 108 116 126 132 125 117
79 89 101 108 125 140 143 134 89 69 43 45 32 39 40 103 98 60 40 34 338 309 17 22 66 89 60 94 47 102 83 137 130 166 167 140 103 112 124 123 117 113 110 105 114 116 118 120 115 111 127 131 127 122
99 74 65 86 94 92 89 83 55 68 60 62 41 46 6 33 16 12 17 352 318 279 272 101 105 73 70 115 81 25 119 126 143 86 106 106 114 117 119 110 108 114 114 116 121 124 123 125 125 124 127 127 131 124
81 56 55 75 76 78 60 65 58 50 67 53 47 32 254 129 122 172 249 256 257 161 65 37 55 58 135 66 52 15 33 0 10 28 52 111 120 122 119 115 122 120 121 124 123 123 124 131 132 125 120 118 125 127
51 47 61 79 79 63 47 37 70 59 49 22 34 360 16 19 12 23 340 328 34 52 41 53 40 45 31 37 33 354 12 25 40 56 81 101 113 116 120 126 127 126 124 121 123 124 130 124 109 98 128 121 116 127
61 59 60 64 74 82 66 37 44 74 45 10 349 348 17 39 37 28 26 38 56 53 66 49 47 36 41 15 329 347 349 14 53 36 43 70 98 106 107 107 110 115 113 109 105 98 93 89 85 92 105 112 101 113
69 65 63 67 70 77 67 34 56 76 60 55 0 41 40 17 348 26 33 21 31 52 48 46 35 16 16 357 354 351 347 351 69 88 66 57 74 89 90 97 94 100 100 98 93 94 92 85 79 92 94 86 96 94
47 38 47 55 55 63 79 40 51 92 101 69 306 55 28 34 40 30 32 2 48 34 56 47 61 44 32 28 24 26 30 31 24 60 77 72 57 72 74 78 87 86 88 88 90 87 87 83 82 89 80 70 60 98
34 33 51 37 66 55 60 19 101 37 71 160 46 51 46 33 31 33 45 36 56 38 37 45 53 46 39 35 34 36 41 53 58 61 62 70 67 64 61 65 80 77 78 85 90 92 92 80 80 76 82 47 39 82
48 40 51 35 63 48 314 5 59 21 56 342 28 36 22 21 49 62 70 39 47 2 35 71 65 59 56 45 47 43 43 56 60 60 65 71 70 70 72 66 70 82 81 70 90 94 88 68 66 63 28 15 24 23
52 52 46 50 49 60 11 20 42 43 31 31 56 48 18 3 39 62 65 46 13 9 23 40 59 63 53 48 41 34 32 53 65 59 59 76 77 67 72 70 71 76 78 84 80 73 65 58 40 22 15 11 13 1
64 358 62 12 0 55 48 41 13 43 39 27 60 20 346 30 69 59 65 58 11 10 12 42 50 50 57 50 38 35 48 59 63 64 44 77 96 91 79 76 69 59 47 48 44 42 41 28 24 23 17 11 1 352
68 10 51 24 20 55 33 68 34 27 72 76 65 298 39 69 63 55 55 31 0 354 360 14 52 60 53 45 44 28 29 64 79 70 46 63 79 102 88 75 47 41 37 33 21 17 26 19 10 3 353 1 10 360
57 32 343 134 134 65 47 66 54 71 49 43 348 17 38 61 63 72 96 24 67 49 64 71 69 66 65 60 60 59 64 73 85 93 90 76 68 60 55 61 62 45 17 10 9 5 355 350 345 341 339 337 332 328
64 49 27 329 35 29 79 51 57 39 2 338 44 34 73 82 58 30 12 58 102 87 80 79 78 77 72 66 61 56 101 105 102 100 90 80 68 55 48 44 36 13 355 348 347 337 340 344 337 344 335 325 326 321
40 2 56 14 29 43 32 45 67 45 341 27 83 67 79 57 1 6 14 59 89 88 74 77 80 83 76 69 63 58 58 71 66 58 41 360 4 10 19 31 0 354 349 339 340 336 328 334 325 327 325 333 339 346
335 41 84 56 55 56 19 64 93 43 33 82 101 95 72 57 28 59 61 74 71 74 76 76 75 73 65 68 65 56 48 45 45 48 66 329 335 336 342 340 334 329 329 327 330 333 324 326 327 332 333 328 325 332
16 31 61 65 78 54 18 85 99 74 57 50 52 95 134 143 72 52 56 74 80 74 68 64 61 54 52 44 42 44 42 38 25 10 1 351 343 339 341 345 352 347 334 328 327 326 325 326 327 328 331 326 300 317
27 68 112 91 116 286 23 81 108 96 76 73 122 83 65 63 62 50 24 44 60 54 48 46 34 33 37 46 45 47 42 349 344 343 337 333 332 334 335 339 335 334 339 346 347 347 350 349 354 355 349 326 322 327
41 33 40 58 35 7 311 86 79 69 43 64 54 106 75 108 116 129 59 40 43 38 27 11 354 357 108 26 17 357 344 338 337 343 342 346 354 344 342 345 345 343 338 334 334 331 333 335 336 335 326 320 323 321
Height
526 534 544 555 566 578 588 597 606 615 624 633 641 650 657 666 677 684 689 697 702 696 679 671 668 672 677 684 698 699 707 711 728 737 745 757 764 755 760 756 764 771 791 809 801 812 789 746 746 762 762 758 759 759
542 549 557 566 575 584 591 599 607 615 622 629 638 647 655 664 676 685 691 690 695 693 683 677 670 665 662 669 685 693 693 699 705 724 739 747 757 765 758 771 748 762 761 775 774 774 749 740 741 744 747 752 755 758
553 559 566 573 580 587 593 600 607 613 620 628 637 646 653 664 674 682 690 689 697 694 680 674 665 660 659 660 665 687 693 688 696 707 724 735 737 758 763 765 746 740 741 757 758 746 744 745 746 746 748 752 757 758
561 566 571 577 583 589 595 601 605 610 616 625 636 645 654 665 673 680 686 691 699 693 684 669 662 660 656 656 660 666 672 681 691 704 721 735 738 733 756 737 746 738 737 743 754 753 749 753 752 753 757 760 762 766
565 570 576 581 587 593 599 604 609 615 622 629 638 647 656 666 673 684 687 690 689 696 687 679 666 659 656 655 663 662 671 678 690 709 726 727 730 731 751 743 747 727 733 750 754 739 746 756 759 759 759 765 769 769
570 575 580 585 591 596 602 607 613 620 627 634 642 651 658 666 674 684 689 685 686 693 693 687 674 666 660 665 659 662 675 676 689 702 720 713 711 724 746 752 722 721 720 721 732 738 746 758 763 765 765 771 774 775
573 579 584 590 595 600 605 611 617 624 632 638 646 652 659 666 672 674 679 674 679 694 695 687 679 671 666 664 667 672 678 684 698 704 716 714 714 722 746 740 722 724 724 727 731 738 754 757 768 771 771 776 778 781
577 581 587 592 598 603 609 616 623 629 635 642 649 656 663 668 673 675 672 674 677 688 688 689 685 683 675 679 683 682 688 693 703 709 714 720 720 733 730 720 723 727 729 735 739 737 747 760 768 773 776 778 781 786
577 583 590 596 602 608 614 619 624 631 638 645 651 658 665 670 667 665 664 675 675 678 679 687 685 685 684 689 690 691 694 708 713 719 721 721 734 732 720 720 722 725 727 742 747 751 758 763 771 776 779 782 784 790
577 584 592 599 604 609 615 621 627 631 640 646 654 656 654 652 659 666 675 668 673 673 676 683 684 685 681 692 697 702 706 718 724 727 720 731 746 730 727 726 726 730 734 741 750 761 763 768 773 778 782 785 788 793
575 583 592 600 605 611 618 624 629 635 641 646 644 650 655 656 667 672 675 672 674 686 684 683 684 680 686 692 701 711 715 722 729 727 726 731 740 734 735 734 734 735 739 742 746 754 760 765 773 780 787 791 794 797
580 586 592 599 605 611 618 625 633 638 638 635 641 653 658 662 671 672 682 681 681 686 693 691 691 689 693 691 703 714 716 725 717 724 731 737 738 736 737 740 742 745 746 750 754 760 766 772 778 784 790 795 798 801
590 596 600 606 610 614 619 623 628 632 633 640 647 653 656 674 677 687 685 689 690 699 696 693 693 696 700 703 712 711 713 719 730 725 724 736 733 737 740 743 747 749 750 757 763 767 773 779 783 786 792 797 800 803
601 605 610 615 620 624 627 632 633 634 637 651 661 676 675 683 695 698 695 695 700 699 696 697 700 703 710 708 715 707 724 722 724 728 726 735 735 740 743 746 749 757 759 762 768 774 779 783 788 791 794 797 801 805
613 613 616 621 626 631 632 632 631 628 642 665 675 690 697 705 705 704 704 703 704 703 702 702 703 704 711 712 717 722 720 719 722 725 734 737 739 742 746 750 754 760 764 768 774 779 785 788 791 795 798 801 804 807
625 625 632 632 631 631 631 631 634 648 672 690 699 698 702 699 704 707 708 707 708 707 707 706 703 705 715 717 717 722 718 724 734 740 741 741 744 747 750 755 760 765 769 775 780 784 787 792 794 798 801 804 807 809
625 638 641 637 633 630 629 636 654 679 695 707 716 718 718 717 716 716 718 714 710 706 704 709 708 718 722 723 731 737 739 743 744 744 743 745 749 753 757 762 767 771 774 778 782 787 791 795 798 801 804 807 808 811
641 644 643 642 639 641 651 661 680 698 707 714 714 716 716 717 714 714 712 707 704 707 710 718 723 731 742 739 749 752 750 750 749 748 749 751 754 758 762 766 770 773 778 783 787 791 795 798 801 804 806 809 811 813
651 647 646 646 646 653 674 689 695 712 722 723 723 722 721 723 723 722 718 715 714 716 722 736 747 754 762 766 765 762 758 755 755 757 758 758 760 764 767 770 774 778 782 786 790 795 799 802 806 808 810 812 813 815
653 652 653 653 652 667 691 706 708 719 727 732 731 730 730 732 732 730 727 725 723 730 745 760 772 777 776 775 773 770 767 762 761 762 766 768 769 770 773 776 780 783 787 792 796 799 803 807 810 812 813 814 814 814
658 661 660 659 666 681 704 716 721 728 733 735 736 736 739 738 740 742 743 742 744 762 774 782 785 785 784 781 778 775 772 769 768 768 772 776 779 779 782 785 787 790 794 799 803 806 807 811 813 814 815 815 814 814
668 668 668 673 687 701 717 723 728 731 734 739 740 742 749 752 753 757 761 763 777 785 788 790 790 790 789 787 785 783 782 779 779 780 782 784 787 790 793 795 796 800 802 805 808 811 813 814 815 815 816 815 814 814
672 674 684 695 710 724 741 730 740 741 750 752 751 755 758 760 761 763 781 789 796 798 795 797 798 797 796 796 793 792 791 790 791 793 794 796 798 800 802 804 805 807 809 812 813 814 815 815 815 816 815 814 814 814
681 695 713 725 732 746 746 748 747 753 757 760 762 761 768 771 770 783 795 803 809 806 803 802 802 803 803 802 803 803 803 802 801 802 804 804 806 809 810 812 812 814 815 816 816 817 817 816 816 816 816 815 814 813
709 737 740 753 751 754 759 754 757 757 764 774 773 772 769 774 784 798 803 814 817 815 812 811 810 810 811 812 812 812 811 810 810 810 812 813 813 815 816 817 818 819 819 819 819 819 819 818 818 817 816 815 813 812
737 753 754 753 758 760 760 765 765 765 768 770 772 772 778 788 810 813 815 824 823 822 819 817 817 817 818 819 819 818 817 817 816 816 819 818 817 818 820 822 823 823 823 823 822 821 820 819 819 818 816 814 813 811
757 767 762 759 760 763 765 771 774 783 790 785 781 780 785 812 819 819 824 825 825 825 824 823 822 823 824 824 824 824 823 822 821 823 825 824 824 825 825 826 826 827 826 825 823 822 820 819 817 816 814 813 812 810
765 769 772 769 773 774 786 793 797 793 793 788 788 805 809 827 830 830 830 829 828 828 828 828 828 829 829 828 828 827 827 827 827 827 828 829 829 829 829 829 828 827 826 824 823 821 819 818 816 814 813 811 809 807
772 773 778 784 786 789 791 792 796 796 795 796 810 818 828 833 837 835 833 832 832 831 832 833 835 834 834 833 832 832 831 831 830 832 834 834 832 831 830 829 828 826 825 823 821 819 818 816 814 812 810 808 806 803
780 780 789 799 796 792 796 797 804 802 802 807 815 827 833 839 841 838 837 836 836 837 838 838 838 837 838 837 837 836 836 836 835 836 836 836 834 832 830 828 826 824 822 820 818 816 815 813 811 809 807 806 804 802
782 787 793 799 799 798 798 799 801 804 808 816 819 828 835 840 843 844 843 843 843 842 842 842 842 842 840 840 840 839 839 839 838 837 836 834 833 831 829 827 824 822 820 818 816 814 812 810 808 806 804 802 801 800
794 799 803 803 802 801 798 801 804 808 816 823 830 833 835 842 849 848 850 848 846 846 846 845 845 844 843 843 841 841 840 839 837 835 834 832 830 828 826 825 823 820 818 816 814 812 810 808 806 804 802 800 799 798
800 805 808 810 806 811 809 808 807 818 824 828 831 834 839 844 850 850 852 850 850 849 847 846 845 844 843 843 842 841 839 838 835 834 832 830 828 827 825 822 820 819 816 814 812 810 809 807 805 802 800 799 797 796